Saint Simons Island, GA

9:44 AM EDT on March 25, 2017 (GMT -0400)
McKinnon

Weather History for KSSI - April, 2013

Change the Weather History Date:

Saturday, April 20, 2013

  Actual Average Record
Temperature  
Mean Temperature 57 °F 68 °F  
Max Temperature 64 °F 76 °F 93 °F (1968)
Min Temperature 50 °F 59 °F 45 °F (1953)
Degree Days  
Heating Degree Days 8 1  
Month to date heating degree days 29 47  
Since 1 July heating degree days 1257 1475  
Cooling Degree Days 0 4  
Month to date cooling degree days 73 55  
Year to date cooling degree days 112 95  
Growing Degree Days 6 (Base 50)    
Moisture  
Dew Point 50 °F    
Average Humidity 75    
Maximum Humidity 89    
Minimum Humidity 60    
Precipitation  
Precipitation 0.49 in 0.07 in 0.92 in (1970)
Month to date precipitation 2.16 1.80  
Year to date precipitation 8.38 12.37  
Snow  
Snow 0.00 in - 0.00 in ()
Month to date snowfall 0.0  
Since 1 July snowfall 0.0  
Snow Depth 0.00 in    
Sea Level Pressure  
Sea Level Pressure 30.11 in    
Wind  
Wind Speed 8 mph (NNW)    
Max Wind Speed 16 mph    
Max Gust Speed 23 mph    
Visibility 9 miles    
Events Rain    
T = Trace of Precipitation, MM = Missing Value Source: NWS Daily Summary

Daily Weather History Graph

Daily Weather History Graph

Search for Another Location

Airport or City:

Trip Planner

Search our weather history database for the weather conditions in past years. The results will help you decide how hot, cold, wet, or windy it might be!

Date:

Astronomy

Apr. 20, 2013 Rise Set
Actual Time 6:51 AM EDT 7:57 PM EDT
Civil Twilight 6:26 AM EDT 8:22 PM EDT
Nautical Twilight 5:56 AM EDT 8:52 PM EDT
Astronomical Twilight 5:26 AM EDT 9:23 PM EDT
Moon 2:59 PM EDT (4/20) 3:19 AM EDT (4/20)
Length of Visible Light 13h 55m
Length of Day
13h 05m
Waxing Gibbous, 71% of the Moon is Illuminated
Apr 20
Waxing Gibbous
Apr 25
Full
May 2
Last Quarter
May 9
New
May 18
First Quarter

Hourly Weather History & Observations

Time (EDT) Temp. Dew Point Humidity Pressure Visibility Wind Dir Wind Speed Gust Speed Precip Events Conditions
12:53 AM 62.1 °F 60.1 °F 93% 30.01 in 10.0 mi WNW 9.2 mph - 0.04 in Rain Light Rain
1:53 AM 61.0 °F 57.9 °F 90% 30.01 in 10.0 mi WNW 6.9 mph - 0.00 in   Overcast
2:06 AM 60.8 °F 59.0 °F 94% 30.01 in 10.0 mi WNW 4.6 mph - N/A   Overcast
2:27 AM 60.8 °F 59.0 °F 94% 30.01 in 10.0 mi NW 8.1 mph - N/A   Overcast
2:53 AM 59.0 °F 55.9 °F 90% 30.01 in 10.0 mi NW 6.9 mph - N/A   Overcast
3:21 AM 55.4 °F 51.8 °F 88% 30.04 in 10.0 mi NW 12.7 mph 21.9 mph N/A   Overcast
3:53 AM 52.0 °F 50.0 °F 93% 30.04 in 5.0 mi NW 12.7 mph 21.9 mph 0.03 in Rain Rain
4:31 AM 51.8 °F 48.2 °F 88% 30.04 in 2.5 mi NW 10.4 mph 21.9 mph 0.15 in Rain Heavy Rain
4:46 AM 51.8 °F 48.2 °F 88% 30.07 in 4.0 mi WNW 10.4 mph 16.1 mph 0.21 in Rain Rain
4:53 AM 51.1 °F 48.9 °F 92% 30.06 in 4.0 mi NW 10.4 mph - 0.23 in Rain Rain
5:53 AM 51.1 °F 48.9 °F 92% 30.06 in 10.0 mi WNW 8.1 mph - 0.10 in Rain Light Rain
6:53 AM 51.1 °F 48.9 °F 92% 30.08 in 10.0 mi NW 8.1 mph - 0.06 in Rain Light Rain
7:53 AM 51.1 °F 48.9 °F 92% 30.09 in 10.0 mi NNW 5.8 mph - 0.06 in Rain Light Rain
8:53 AM 51.1 °F 48.0 °F 89% 30.11 in 10.0 mi NNW 6.9 mph - 0.00 in Rain Light Rain
9:53 AM 50.0 °F 46.0 °F 86% 30.14 in 10.0 mi NNW 6.9 mph - 0.01 in Rain Light Rain
10:53 AM 51.1 °F 46.0 °F 83% 30.16 in 10.0 mi NW 3.5 mph - 0.00 in   Scattered Clouds
11:53 AM 52.0 °F 46.9 °F 83% 30.16 in 10.0 mi NNW 4.6 mph - N/A   Clear
12:53 PM 54.0 °F 46.9 °F 77% 30.15 in 10.0 mi NNW 9.2 mph - N/A   Scattered Clouds
1:39 PM 57.2 °F 46.4 °F 67% 30.15 in 10.0 mi NNE 8.1 mph - N/A   Mostly Cloudy
1:53 PM 57.0 °F 46.9 °F 69% 30.15 in 10.0 mi North 9.2 mph - N/A   Mostly Cloudy
2:06 PM 57.2 °F 48.2 °F 72% 30.15 in 10.0 mi North 9.2 mph - N/A   Scattered Clouds
2:32 PM 57.2 °F 48.2 °F 72% 30.14 in 10.0 mi NNE 8.1 mph - N/A   Mostly Cloudy
2:53 PM 57.9 °F 48.0 °F 70% 30.15 in 10.0 mi North 8.1 mph - N/A   Mostly Cloudy
3:53 PM 59.0 °F 48.0 °F 67% 30.14 in 10.0 mi NNE 8.1 mph - N/A   Overcast
4:53 PM 62.1 °F 48.0 °F 60% 30.13 in 10.0 mi North 12.7 mph 17.3 mph N/A   Mostly Cloudy
5:53 PM 62.1 °F 48.9 °F 62% 30.13 in 10.0 mi NNE 11.5 mph - N/A   Mostly Cloudy
6:53 PM 61.0 °F 48.0 °F 62% 30.14 in 10.0 mi NNE 10.4 mph - N/A   Mostly Cloudy
7:53 PM 60.1 °F 50.0 °F 69% 30.16 in 10.0 mi NNE 4.6 mph - N/A   Overcast
8:53 PM 59.0 °F 51.1 °F 75% 30.19 in 10.0 mi NNE 5.8 mph - N/A   Scattered Clouds
9:53 PM 57.0 °F 50.0 °F 77% 30.21 in 10.0 mi NE 8.1 mph - N/A   Clear
10:53 PM 57.9 °F 48.0 °F 70% 30.22 in 10.0 mi NE 8.1 mph - N/A   Clear
11:53 PM 57.9 °F 48.0 °F 70% 30.22 in 10.0 mi NE 8.1 mph - N/A   Clear